{"data":{"norad_id":54179,"epoch":"2026-09-20T01:50:33.175104Z","epoch_age_seconds":126195,"freshness":"FRESH","line1":"1 54179U 22141Y   26263.07677286 -.00000061  00000+0  93197-5 0  9999","line2":"2 54179  53.1589 195.3737 0001277  83.5833 276.5315 15.34386076215427","mean_motion":15.34386076,"eccentricity":0.0001277,"inclination_deg":53.1589,"raan_deg":195.3737,"arg_perigee_deg":83.5833,"mean_anomaly_deg":276.5315,"bstar":9.3197e-6,"rev_number":21542,"period_min":93.848609715877,"perigee_km":461.87104499883,"apogee_km":463.618206166,"semimajor_km":6840.8816255824,"source":"CELESTRAK","updated_at":"2026-09-21T09:00:33.092568Z"}}